Location: Alsip
(41.6689°N, 87.7387°W)
Time: 13:55:20
(UTC+00:00)

Meteor 1-4 Rocket - Pass Details

Date: 14 July 2020
Orbit: 449 x 502 km, 81.2° (Epoch: 05 August)

Event Time Altitude Azimuth Distance (km) Brightness Sun altitude
Rises 06:33:25 0° 352° (N) 2,580 7.4 -26.2°
Reaches altitude 10° 06:35:34 10° 354° (N) 1,685 6.2 -26.1°
Enters shadow 06:38:03 40° 4° (N) 728 3.8 -26.0°
